Tracking 35237 objects as of 5-Sep-2026
HD Live streaming from Space Station
objects crossing your sky now

IRIDIUM 86


IRIDIUM 86 is no longer on orbit
IRIDIUM 86 is classified as:


NORAD ID: 25528
Int'l Code: 1998-066B
Launch date: November 6, 1998
Source: United States (US)
Launch site: AIR FORCE WESTERN TEST RANGE (AFWTR)
Decay date: 2018-10-05

Spare; stored in 667 km storage orbit, not raised to 780 km operational orbit until needed
Your satellite tracking list
Your tracking list is empty




NASA's NSSDC Master Catalog

Two Line Element Set (TLE):
1 25528U 98066B   18278.25234233  .16532404 -88396-6  33224-3 0  9994
2 25528  86.3784 147.9766 0040876  28.8947 331.7263 16.42097639 47905
Source of the keplerian elements: AFSPC